Abbotsford, British Columbia

4:32 AM PST on November 18, 2017 (GMT -0800)
Abbotsford

Weather History for CYXX - January, 2014

Change the Weather History Date:

Saturday, January 18, 2014

  Actual Average Record
Temperature  
Mean Temperature 32 °F -  
Max Temperature 39 °F 45 °F 57 °F (2005)
Min Temperature 26 °F 32 °F 8 °F (2012)
Degree Days  
Heating Degree Days 32    
Moisture  
Dew Point 34 °F    
Average Humidity 99    
Maximum Humidity 100    
Minimum Humidity 93    
Precipitation  
Precipitation 0.00 in 0.23 in - ()
Sea Level Pressure  
Sea Level Pressure 30.24 in    
Wind  
Wind Speed 3 mph ()    
Max Wind Speed 9 mph    
Max Gust Speed -    
Visibility 1.6 miles    
Events Fog    
Averages and records for this station are not official NWS values.
T = Trace of Precipitation, MM = Missing Value Source: Averaged Metar Reports

Daily Weather History Graph

Daily Weather History Graph

Search for Another Location

Airport or City:

Trip Planner

Search our weather history database for the weather conditions in past years. The results will help you decide how hot, cold, wet, or windy it might be!

Date:

Astronomy

Jan. 18, 2014 Rise Set
Actual Time 7:55 AM PST 4:44 PM PST
Civil Twilight 7:20 AM PST 5:20 PM PST
Nautical Twilight 6:40 AM PST 5:59 PM PST
Astronomical Twilight 6:03 AM PST 6:37 PM PST
Moon 7:50 PM PST 8:41 AM PST
Length of Visible Light 10h 00m
Length of Day
8h 48m
Waning Gibbous, 94% of the Moon is Illuminated
Jan 18
Waning Gibbous
Jan 23
Last Quarter
Jan 30
New
Feb 6
First Quarter
Feb 14
Full

Hourly Weather History & Observations

Time (PST) Temp. Windchill Dew Point Humidity Pressure Visibility Wind Dir Wind Speed Gust Speed Precip Events Conditions
12:00 AM 28.4 °F 23.3 °F 26.6 °F 93% 30.19 in 0.5 mi South 4.6 mph - N/A Fog Light Freezing Fog
1:00 AM 28.4 °F 24.6 °F 28.4 °F 100% 30.21 in 0.5 mi SW 3.5 mph - N/A Fog Light Freezing Fog
1:23 AM 28.4 °F - 28.4 °F 100% 30.21 in 0.8 mi Calm Calm - N/A   Clear
2:00 AM 28.4 °F - 26.6 °F 93% 30.21 in 0.8 mi ENE 2.3 mph - N/A   Clear
2:26 AM 26.6 °F - 26.6 °F 100% 30.22 in 0.5 mi SW 2.3 mph - N/A Fog Light Freezing Fog
3:00 AM 26.6 °F - 26.6 °F 100% 30.23 in 0.6 mi Variable 2.3 mph - N/A   Clear
4:00 AM 29 °F - 29 °F 100% 30.23 in 1 mi West 2.3 mph - -   Mist
4:00 AM 28.4 °F 24.6 °F 28.4 °F 100% 30.23 in 0.6 mi West 3.5 mph - N/A   Clear
4:29 AM 30.2 °F 26.7 °F 30.2 °F 100% 30.23 in 0.5 mi North 3.5 mph - N/A Fog Light Freezing Fog
5:00 AM 30.2 °F 26.7 °F 30.2 °F 100% 30.23 in 0.4 mi NNW 3.5 mph - N/A Fog Light Freezing Fog
6:00 AM 32.0 °F 27.5 °F 32.0 °F 100% 30.22 in 0.4 mi East 4.6 mph - N/A Fog Light Freezing Fog
7:00 AM 32.0 °F 27.5 °F 32.0 °F 100% 30.21 in 0.4 mi East 4.6 mph - N/A Fog Light Freezing Fog
8:00 AM 30.2 °F - 30.2 °F 100% 30.23 in 0.5 mi West 2.3 mph - N/A Fog Light Freezing Fog
8:54 AM 30.2 °F - 30.2 °F 100% 30.24 in 0.4 mi Calm Calm - N/A Fog Light Freezing Fog
9:00 AM 30.2 °F - 30.2 °F 100% 30.24 in 0.2 mi Calm Calm - N/A Fog Light Freezing Fog
9:15 AM 30.2 °F 21.9 °F 30.2 °F 100% 30.26 in 0.5 mi WSW 9.2 mph - N/A Fog Light Freezing Fog
10:00 AM 31 °F - 31 °F 100% 30.28 in 1 mi West 1.2 mph - - Fog Partial Fog
10:00 AM 32.0 °F - 32.0 °F 100% 30.27 in 0.4 mi Variable 2.3 mph - N/A Fog Light Freezing Fog
10:35 AM 32.0 °F - 32.0 °F 100% 30.28 in 0.2 mi Calm Calm - N/A Fog Fog
11:00 AM 33.8 °F - 33.8 °F 100% 30.29 in 0.2 mi Calm Calm - N/A Fog Fog
12:00 PM 35.6 °F - 35.6 °F 100% 30.27 in 0.4 mi NNE 2.3 mph - N/A Fog Fog
12:34 PM 35.6 °F - 35.6 °F 100% 30.27 in 0.5 mi Calm Calm - N/A Fog Fog
1:00 PM 35.6 °F - 35.6 °F 100% 30.27 in 0.6 mi Variable 2.3 mph - N/A   Overcast
1:14 PM 37.4 °F 34.9 °F 37.4 °F 100% 30.27 in 1.2 mi West 3.5 mph - N/A   Overcast
1:23 PM 37.4 °F - 37.4 °F 100% 30.27 in 1.2 mi Calm Calm - N/A   Overcast
2:00 PM 37.4 °F - 37.4 °F 100% 30.26 in 1.8 mi East 2.3 mph - N/A   Mostly Cloudy
2:45 PM 39.2 °F 37.0 °F 39.2 °F 100% 30.25 in 10.0 mi East 3.5 mph - N/A   Mostly Cloudy
3:00 PM 39.2 °F 35.9 °F 39.2 °F 100% 30.25 in 10.0 mi NNE 4.6 mph - N/A   Mostly Cloudy
4:00 PM 38 °F - 38 °F 100% 30.26 in 4 mi North 4.6 mph - -   Mist
4:00 PM 39.2 °F 35.9 °F 39.2 °F 100% 30.26 in 4.0 mi North 4.6 mph - N/A   Mostly Cloudy
4:38 PM 39.2 °F - 37.4 °F 93% 30.27 in 2.0 mi Variable 2.3 mph - N/A   Overcast
5:00 PM 39.2 °F 35.0 °F 37.4 °F 93% 30.27 in 1.5 mi NNE 5.8 mph - N/A   Overcast
6:00 PM 39.2 °F 34.2 °F 37.4 °F 93% 30.25 in 1.5 mi NNE 6.9 mph - N/A   Overcast
7:00 PM 39.2 °F 35.0 °F 37.4 °F 93% 30.26 in 2.0 mi North 5.8 mph - N/A   Overcast
8:00 PM 39.2 °F 35.9 °F 37.4 °F 93% 30.22 in 2.0 mi NE 4.6 mph - N/A   Overcast
9:00 PM 37.4 °F 34.9 °F 37.4 °F 100% 30.22 in 2.5 mi North 3.5 mph - N/A   Overcast
10:00 PM 38 °F - 37 °F 93% 30.23 in 2 mi NNE 3.5 mph - -   Mist
10:00 PM 37.4 °F 34.9 °F 37.4 °F 100% 30.23 in 2.5 mi NNE 3.5 mph - N/A   Overcast
11:00 PM 37.4 °F 34.9 °F 37.4 °F 100% 30.23 in 1.5 mi NNE 3.5 mph - N/A   Overcast
11:10 PM 37.4 °F 34.9 °F 37.4 °F 100% 30.22 in 0.8 mi NNE 3.5 mph - N/A   Overcast